Klawock, AK

4:48 PM AKST on January 19, 2017 (GMT -0900)
Klawock

Weather History for PAKW - April, 2013

Change the Weather History Date:

Wednesday, April 17, 2013

  Actual Average Record
Temperature  
Mean Temperature 44 °F -  
Max Temperature 48 °F 49 °F 66 °F (1999)
Min Temperature 39 °F 33 °F 27 °F (2002)
Degree Days  
Heating Degree Days 22    
Moisture  
Dew Point 41 °F    
Average Humidity 89    
Maximum Humidity 100    
Minimum Humidity 79    
Precipitation  
Precipitation 0.11 in - - ()
Sea Level Pressure  
Sea Level Pressure 30.09 in    
Wind  
Wind Speed 6 mph (SSW)    
Max Wind Speed 10 mph    
Max Gust Speed 24 mph    
Visibility 7 miles    
Events Rain    
Averages and records for this station are not official NWS values.
T = Trace of Precipitation, MM = Missing Value Source: NWS Daily Summary

Daily Weather History Graph

Daily Weather History Graph

Search for Another Location

Airport or City:

Trip Planner

Search our weather history database for the weather conditions in past years. The results will help you decide how hot, cold, wet, or windy it might be!

Date:

Astronomy

Apr. 17, 2013 Rise Set
Actual Time 5:41 AM AKDT 8:03 PM AKDT
Civil Twilight 5:01 AM AKDT 8:43 PM AKDT
Nautical Twilight 4:10 AM AKDT 9:35 PM AKDT
Astronomical Twilight 3:07 AM AKDT 10:39 PM AKDT
Moon 10:42 AM AKDT (4/17) 2:06 AM AKDT (4/17)
Length of Visible Light 15h 41m
Length of Day
14h 21m
Waxing Crescent, 44% of the Moon is Illuminated
Apr 17
Waxing Crescent
Apr 18
First Quarter
Apr 25
Full
May 2
Last Quarter
May 9
New

Hourly Weather History & Observations

Time (AKDT) Temp. Windchill Dew Point Humidity Pressure Visibility Wind Dir Wind Speed Gust Speed Precip Events Conditions
12:44 AM 39.2 °F 35.0 °F 33.8 °F 81% 30.09 in 10.0 mi Variable 5.8 mph - 0.00 in   Overcast
12:53 AM 39.9 °F 33.4 °F 34.0 °F 79% 30.10 in 10.0 mi South 10.4 mph 17.3 mph 0.00 in   Overcast
1:53 AM 39.9 °F 35.8 °F 35.1 °F 83% 30.07 in 10.0 mi Variable 5.8 mph - 0.00 in   Overcast
2:53 AM 41.0 °F 35.2 °F 35.1 °F 79% 30.05 in 10.0 mi South 9.2 mph 17.3 mph N/A   Overcast
3:53 AM 41.0 °F 34.7 °F 37.0 °F 86% 30.04 in 10.0 mi South 10.4 mph 21.9 mph 0.00 in   Overcast
4:44 AM 42.8 °F 38.0 °F 37.4 °F 81% 30.03 in 6.0 mi SSE 8.1 mph 18.4 mph 0.01 in Rain Light Rain
4:53 AM 41.0 °F 34.7 °F 37.0 °F 86% 30.03 in 6.0 mi SSE 10.4 mph 24.2 mph 0.01 in Rain Light Rain
5:15 AM 42.8 °F 38.6 °F 37.4 °F 81% 30.03 in 10.0 mi Variable 6.9 mph - 0.01 in Rain Light Rain
5:37 AM 42.8 °F 40.1 °F 37.4 °F 81% 30.02 in 9.0 mi Variable 4.6 mph - 0.02 in Rain Light Rain
5:53 AM 42.1 °F 38.4 °F 37.9 °F 85% 30.03 in 10.0 mi Variable 5.8 mph - 0.03 in Rain Light Rain
6:53 AM 42.1 °F 38.4 °F 39.0 °F 89% 30.02 in 10.0 mi Variable 5.8 mph - 0.01 in Rain Light Rain
7:53 AM 43.0 °F - 39.9 °F 89% 30.04 in 10.0 mi Calm Calm - 0.01 in Rain Light Rain
8:53 AM 44.1 °F 42.5 °F 41.0 °F 89% 30.04 in 10.0 mi Variable 3.5 mph - 0.00 in   Overcast
9:53 AM 45.0 °F - 42.1 °F 90% 30.04 in 3.0 mi Calm Calm - 0.01 in Rain Light Rain
10:25 AM 44.6 °F 43.1 °F 42.8 °F 93% 30.05 in 2.5 mi Variable 3.5 mph - 0.01 in Rain Light Rain
10:39 AM 46.4 °F - 44.6 °F 93% 30.05 in 3.0 mi Calm Calm - 0.02 in Rain Light Rain
10:49 AM 46.4 °F 45.2 °F 44.6 °F 93% 30.06 in 2.5 mi Variable 3.5 mph - 0.02 in Rain Light Rain
10:53 AM 46.0 °F 43.9 °F 44.1 °F 93% 30.06 in 2.5 mi SSW 4.6 mph - 0.02 in Rain Light Rain
10:57 AM 46.4 °F 45.2 °F 44.6 °F 93% 30.06 in 3.0 mi SSW 3.5 mph - 0.00 in Rain Light Rain
11:07 AM 46.4 °F 45.2 °F 44.6 °F 93% 30.06 in 2.5 mi SSW 3.5 mph - 0.01 in Rain Light Rain
11:14 AM 46.4 °F 44.3 °F 44.6 °F 93% 30.07 in 2.5 mi SW 4.6 mph - 0.01 in Rain Light Rain
11:25 AM 44.6 °F 41.4 °F 44.6 °F 100% 30.07 in 4.0 mi SSW 5.8 mph - 0.01 in   Overcast
11:51 AM 44.6 °F 39.7 °F 44.6 °F 100% 30.08 in 2.5 mi SW 9.2 mph - 0.01 in Rain Light Rain
11:53 AM 45.0 °F 41.2 °F 44.1 °F 97% 30.08 in 2.5 mi SW 6.9 mph - 0.01 in Rain Light Rain
12:32 PM 46.4 °F 42.4 °F 44.6 °F 93% 30.08 in 3.0 mi SW 8.1 mph - 0.01 in   Overcast
12:41 PM 46.4 °F 42.9 °F 44.6 °F 93% 30.09 in 2.5 mi SW 6.9 mph - 0.01 in   Overcast
12:48 PM 46.4 °F 42.4 °F 44.6 °F 93% 30.09 in 4.0 mi SW 8.1 mph - 0.01 in   Overcast
12:53 PM 46.0 °F 41.9 °F 45.0 °F 96% 30.09 in 6.0 mi SW 8.1 mph - 0.01 in   Overcast
1:05 PM 46.4 °F 42.4 °F 44.6 °F 93% 30.09 in 10.0 mi SSW 8.1 mph - N/A   Overcast
1:27 PM 46.4 °F 42.9 °F 44.6 °F 93% 30.10 in 8.0 mi SW 6.9 mph - N/A   Overcast
1:41 PM 46.4 °F 42.9 °F 44.6 °F 93% 30.11 in 6.0 mi SW 6.9 mph - N/A   Overcast
1:53 PM 48.0 °F - 46.9 °F 96% 30.11 in 3.0 mi Variable 4.6 mph - N/A   Overcast
2:53 PM 48.0 °F - 44.1 °F 86% 30.12 in 10.0 mi SW 5.8 mph - N/A   Overcast
3:53 PM 48.0 °F - 43.0 °F 83% 30.12 in 10.0 mi WSW 6.9 mph - N/A   Overcast
4:14 PM 46.4 °F 44.3 °F 42.8 °F 87% 30.12 in 10.0 mi SW 4.6 mph - N/A   Overcast
4:53 PM 48.0 °F - 43.0 °F 83% 30.13 in 10.0 mi WSW 6.9 mph - N/A   Overcast
5:53 PM 46.0 °F 43.1 °F 42.1 °F 86% 30.14 in 10.0 mi WSW 5.8 mph - N/A   Overcast
6:13 PM 44.6 °F 42.2 °F 41.0 °F 87% 30.14 in 10.0 mi SW 4.6 mph - N/A   Overcast
7:03 PM 42.8 °F 40.1 °F 39.2 °F 87% 30.13 in 10.0 mi SW 4.6 mph - N/A   Overcast
7:53 PM 42.1 °F - 37.9 °F 85% 30.14 in 10.0 mi Calm Calm - N/A   Overcast
8:40 PM 41.0 °F 38.0 °F 37.4 °F 87% 30.14 in 10.0 mi SW 4.6 mph - N/A   Overcast
8:53 PM 41.0 °F 39.0 °F 37.9 °F 89% 30.15 in 10.0 mi Variable 3.5 mph - N/A   Overcast
9:27 PM 41.0 °F 39.0 °F 37.4 °F 87% 30.16 in 10.0 mi South 3.5 mph - N/A   Overcast
9:53 PM 41.0 °F 39.0 °F 37.0 °F 86% 30.16 in 10.0 mi South 3.5 mph - N/A   Overcast
10:53 PM 41.0 °F - 37.0 °F 86% 30.15 in 10.0 mi Calm Calm - N/A   Overcast
11:53 PM 39.9 °F - 37.9 °F 93% 30.15 in 10.0 mi Calm Calm - N/A   Overcast